Location: Tom
(33.0437°N, 96.9452°W)
Time: 00:13:00
(UTC-06:00)

N. Korean satellite - Pass Details

Date: 01 February 2019
Orbit: 456 x 510 km, 97.2° (Epoch: 21 February)

Event Time Altitude Azimuth Distance (km) Brightness Sun altitude
Rises 06:31:08 0° 13° (NNE) 2,565 10.2 -11.3°
Reaches altitude 10° 06:33:14 10° 14° (NNE) 1,671 9.3 -10.9°
Maximum altitude 06:36:49 77° 101° (ESE) 495 6.7 -10.1°
Drops below altitude 10° 06:40:19 10° 187° (S) 1,628 9.3 -9.4°
Sets 06:42:20 0° 189° (S) 2,492 10.2 -9.0°
